Regional Weather Roundup
Issued by NWS

Home | Current Version | Previous Version | Graphics & Text | Print | Product List | Glossary On
Versions: 1 2 3 4 5 6 7 8 9 10 11 12 13 14 15 16 17 18 19 20 21 22 23 24 25 26 27 28 29 30 31 32 33 34 35 36 37 38 39 40 41 42 43 44 45 46 47 48 49 50
000
ASUS43 KOAX 040010
RWRNE

WEATHER ROUNDUP FOR NEBRASKA
NATIONAL WEATHER SERVICE OMAHA NE
700 PM CDT FRI JUL 03 2015

NOTES: SATELLITE DATA IS BEING USED TO AUGMENT CLOUD COVER ABOVE
       12000 FEET.
       "FAIR" INDICATES FEW OR NO CLOUDS BELOW 12,000 FEET WITH NO
       SIGNIFICANT WEATHER AND/OR OBSTRUCTIONS TO VISIBILITY.

  * THESE STATIONS DO NOT REPORT WEATHER SUCH AS RAIN...SNOW OR FOG.

NEZ001>004-019>022-054>056-040100-
NEBRASKA PANHANDLE

CITY           SKY/WX    TMP DP  RH WIND       PRES   REMARKS
SCOTTSBLUFF    SUNNY     85  56  37 SE10      29.99F
6HR MIN TEMP:  80; 6HR MAX TEMP:  86;

ALLIANCE       SUNNY     80  58  46 SE9       30.01F
6HR MIN TEMP:  76; 6HR MAX TEMP:  83;

CHADRON        SUNNY     83  58  42 E9        29.96F
6HR MIN TEMP:  79; 6HR MAX TEMP:  86;

KIMBALL          N/A    N/A N/A N/A MISG        N/A
SIDNEY         MOSUNNY   81  56  42 E10       30.04F
6HR MIN TEMP:  77; 6HR MAX TEMP:  85;

$$

NEZ057>060-069>072-079>082-040100-
SOUTHWEST NEBRASKA

CITY           SKY/WX    TMP DP  RH WIND       PRES   REMARKS
NORTH PLATTE   PTSUNNY   81  60  48 SE7       29.98F
6HR MIN TEMP:  78; 6HR MAX TEMP:  85;

IMPERIAL       SUNNY     86  54  33 E5        29.99F
6HR MIN TEMP:  81; 6HR MAX TEMP:  88;

LEXINGTON      SUNNY     82  60  47 E6        29.97F
MCCOOK         SUNNY     83  61  47 E10       29.97F
6HR MIN TEMP:  79; 6HR MAX TEMP:  84;

OGALLALA       SUNNY     82  57  42 E7        30.00F
$$

NEZ005>010-023>029-035>040-094-040100-
NORTH CENTRAL NEBRASKA

CITY           SKY/WX    TMP DP  RH WIND       PRES   REMARKS
VALENTINE      MOSUNNY   81  59  47 E5        29.98F
6HR MIN TEMP:  78; 6HR MAX TEMP:  84;

AINSWORTH      SUNNY     80  58  46 CALM      29.98F
BROKEN BOW     SUNNY     81  61  50 SE6       29.98F
6HR MIN TEMP:  77; 6HR MAX TEMP:  83;

O`NEILL        SUNNY     79  63  58 CALM      29.98S
ORD            SUNNY     81  59  47 SE7       29.95F
6HR MIN TEMP:  75; 6HR MAX TEMP:  84;

THEDFORD       SUNNY     81  60  48 NE3       29.99F
$$

NEZ041-046>049-061>064-073>077-083>087-040100-
SOUTH CENTRAL NEBRASKA

CITY           SKY/WX    TMP DP  RH WIND       PRES   REMARKS
GRAND ISLAND   SUNNY     76  61  59 SE6       29.99F
6HR MIN TEMP:  71; 6HR MAX TEMP:  79;

AURORA         SUNNY     75  62  64 E5        29.99S
HASTINGS       MOSUNNY   77  62  59 E6        29.98F
6HR MIN TEMP:  73; 6HR MAX TEMP:  79;

HEBRON         SUNNY     77  59  53 E6        29.97F
HOLDREGE       SUNNY     76  60  57 E8        29.99F
KEARNEY *      SUNNY     79  61  53 E7        29.99F
YORK           PTSUNNY   75  64  69 S5        29.99S
$$

NEZ011>018-030>034-042>045-040100-
NORTHEAST NEBRASKA

CITY           SKY/WX    TMP DP  RH WIND       PRES   REMARKS
NORFOLK        PTSUNNY   76  64  66 E6        29.97F
6HR MIN TEMP:  70; 6HR MAX TEMP:  78;

ALBION         SUNNY     76  63  62 SE6       29.98S
BLAIR          SUNNY     76  54  45 CALM      29.96F
COLUMBUS *     SUNNY     75  61  60 CALM      29.99F
FREMONT        SUNNY     77  58  52 CALM      29.97F
TEKAMAH        SUNNY     79  56  45 E6        29.95F
6HR MIN TEMP:  76; 6HR MAX TEMP:  81;

WAYNE          SUNNY     76  65  66 CALM      29.97S
$$

NEZ050>053-065>068-078-088>093-040100-
SOUTHEAST NEBRASKA

CITY           SKY/WX    TMP DP  RH WIND       PRES   REMARKS
LINCOLN        SUNNY     77  62  59 N6        29.97F
6HR MIN TEMP:  76; 6HR MAX TEMP:  80;

OMAHA EPPLEY   SUNNY     78  54  43 NW5       29.96S
6HR MIN TEMP:  74; 6HR MAX TEMP:  80;

BEATRICE       SUNNY     76  60  56 NE5       29.96F
FALLS CITY     SUNNY     79  58  48 CALM      29.94F
6HR MIN TEMP:  75; 6HR MAX TEMP:  80;

NEBRASKA CITY  SUNNY     75  51  42 N3        29.96F
PLATTSMOUTH    SUNNY     75  51  42 CALM      29.97S
$$

NEZ044-045-051>053-067-040100-
OMAHA AREA

CITY           SKY/WX    TMP DP  RH WIND       PRES   REMARKS
OMAHA EPPLEY   SUNNY     78  54  43 NW5       29.96S
6HR MIN TEMP:  74; 6HR MAX TEMP:  80;

BLAIR          SUNNY     76  54  45 CALM      29.96F
FREMONT        SUNNY     77  58  52 CALM      29.97F
MILLARD        SUNNY     78  56  46 CALM      29.95F
OFFUTT AFB     SUNNY     77  59  52 NE6       29.95F
PLATTSMOUTH    SUNNY     75  51  42 CALM      29.97S
WAHOO          FAIR      76  58  53 CALM      29.97S
$$



USA.gov is the U.S. government's official web portal to all federal, state and local government web resources and services.